Location: Grasslands National Park East Block
(49.0708°N, 106.5295°W)
Time: 13:21:13
(UTC-06:00)

Vanguard 1 - Pass Details

Date: 01 October 2019
Orbit: 653 x 3830 km, 34.2° (Epoch: 20 October)

Event Time Altitude Azimuth Distance (km) Brightness Sun altitude
Rises 21:41:40 0° 185° (S) 5,972 13.8 -28.6°
Enters shadow 21:45:02 - 176° (S) 5,619 13.6 -29.1°
Reaches altitude 10° 21:46:50 10° 170° (S) 5,481 - -29.3°
Maximum altitude 21:58:04 21° 130° (SE) 5,470 - -30.8°
Drops below altitude 10° 22:11:49 10° 92° (E) 6,894 - -32.6°
Exits shadow 22:17:44 - 82° (E) 7,712 14.3 -33.4°
Sets 22:19:31 0° 80° (E) 7,967 14.4 -33.6°
